This demonstration page uses our WeatherBlox Daily Observations layout. Learn more.

Left ArrowRight Arrow

Hourly Observations for July 27, 2019

Temp ( °F °C ) Dew Point ( °F °C ) Humidity (%) Winds ( mph kmh ) Pressure ( in mb ) Visibility ( mi km ) Precip ( " mm )
12:56 am 00:56 Clear 70 21.1 61 16.1 73 73 S 8 13 30.03 1017 10 16 0.00 0.00
1:56 am 01:56 Clear 68 20 61 16.1 78 78 S 10 17 30.02 1017 10 16 0.00 0.00
2:56 am 02:56 Clear 69 20.6 60 15.6 73 73 SSW 9 15 30.02 1017 10 16 0.00 0.00
3:56 am 03:56 Clear 67 19.4 60 15.6 79 79 S 5 7 30.02 1017 10 16 0.00 0.00
4:56 am 04:56 Clear 66 18.9 60 15.6 81 81 S 3 6 30.02 1017 10 16 0.00 0.00
5:56 am 05:56 Clear 65 18.3 60 15.6 84 84 S 7 11 30.03 1017 10 16 0.00 0.00
6:56 am 06:56 Sunny 65 18.3 61 16.1 87 87 SSW 6 9 30.04 1017 10 16 0.00 0.00
7:56 am 07:56 Sunny 67 19.4 61 16.1 81 81 S 6 9 30.05 1018 10 16 0.00 0.00
8:56 am 08:56 Sunny 70 21.1 61 16.1 73 73 S 8 13 30.05 1018 10 16 0.00 0.00
9:56 am 09:56 Sunny 75 23.9 63 17.2 66 66 S 12 19 30.04 1017 10 16 0.00 0.00
10:56 am 10:56 Sunny 79 26.1 64 17.8 60 60 SSW 10 17 30.04 1017 10 16 0.00 0.00
11:56 am 11:56 Sunny 81 27.2 66 18.9 61 61 S 12 19 30.04 1017 10 16 0.00 0.00
12:56 pm 12:56 Sunny 83 28.3 67 19.4 59 59 S 10 17 30.03 1017 10 16 0.00 0.00
1:56 pm 13:56 Sunny 85 29.4 69 20.6 59 59 SSE 12 19 30.02 1017 10 16 0.00 0.00
2:56 pm 14:56 Sunny 86 30 67 19.4 53 53 S 12 19 30.01 1016 10 16 0.00 0.00
3:56 pm 15:56 Sunny 87 30.6 68 20 53 53 SSE 10 17 30.00 1016 10 16 0.00 0.00
4:56 pm 16:56 Sunny 89 31.7 68 20 50 50 SSE 12 19 29.98 1015 10 16 0.00 0.00
5:56 pm 17:56 Sunny 88 31.1 68 20 52 52 SE 12 19 29.96 1015 10 16 0.00 0.00
6:56 pm 18:56 Sunny 84 28.9 71 21.7 65 65 SE 7 11 29.95 1014 10 16 0.00 0.00
7:56 pm 19:56 Sunny 82 27.8 70 21.1 67 67 SE 6 9 29.95 1014 10 16 0.00 0.00
8:56 pm 20:56 Sunny 80 26.7 67 19.4 64 64 SE 8 13 29.95 1014 10 16 0.00 0.00
9:56 pm 21:56 Clear 79 26.1 64 17.8 60 60 SSE 12 19 29.95 1014 10 16 0.00 0.00
10:56 pm 22:56 Clear 79 26.1 61 16.1 54 54 SSE 13 20 29.96 1015 10 16 0.00 0.00
11:56 pm 23:56 Clear 78 25.6 60 15.6 54 54 S 14 22 29.95 1014 10 16 0.00 0.00

Powered by AerisWeather